Data supplied by UK-AIR on 31/3/2012
All Data GMT hour ending 
Status: R =Ratified P=Provisional,P*=As supplied
,,Oxford Centre Roadside,,,,,,,,,,,,,,,,,,,,,,,
Date,time,"Nitric oxide",status,unit,"Nitrogen dioxide",status,unit,"Nitrogen oxides as nitrogen dioxide",status,unit
 
01-01-2011,01:00,,,,,,,,,
01-01-2011,02:00,10,R,ugm-3,42,R,ugm-3,57,R,ugm-3
01-01-2011,03:00,39,R,ugm-3,46,R,ugm-3,105,R,ugm-3
01-01-2011,04:00,13,R,ugm-3,34,R,ugm-3,53,R,ugm-3
01-01-2011,05:00,8,R,ugm-3,31,R,ugm-3,42,R,ugm-3
01-01-2011,06:00,8,R,ugm-3,27,R,ugm-3,38,R,ugm-3
01-01-2011,07:00,3,R,ugm-3,19,R,ugm-3,23,R,ugm-3
01-01-2011,08:00,4,R,ugm-3,21,R,ugm-3,27,R,ugm-3
01-01-2011,09:00,6,R,ugm-3,25,R,ugm-3,34,R,ugm-3
01-01-2011,10:00,15,R,ugm-3,31,R,ugm-3,53,R,ugm-3
01-01-2011,11:00,14,R,ugm-3,34,R,ugm-3,55,R,ugm-3
01-01-2011,12:00,15,R,ugm-3,31,R,ugm-3,53,R,ugm-3
01-01-2011,13:00,19,R,ugm-3,32,R,ugm-3,61,R,ugm-3
01-01-2011,14:00,34,R,ugm-3,46,R,ugm-3,97,R,ugm-3
01-01-2011,15:00,33,R,ugm-3,44,R,ugm-3,94,R,ugm-3
01-01-2011,16:00,30,R,ugm-3,38,R,ugm-3,84,R,ugm-3
01-01-2011,17:00,46,R,ugm-3,44,R,ugm-3,115,R,ugm-3
01-01-2011,18:00,53,R,ugm-3,55,R,ugm-3,136,R,ugm-3
01-01-2011,19:00,23,R,ugm-3,44,R,ugm-3,78,R,ugm-3
01-01-2011,20:00,19,R,ugm-3,36,R,ugm-3,65,R,ugm-3
01-01-2011,21:00,25,R,ugm-3,40,R,ugm-3,78,R,ugm-3
01-01-2011,22:00,10,R,ugm-3,36,R,ugm-3,52,R,ugm-3
01-01-2011,23:00,25,R,ugm-3,40,R,ugm-3,78,R,ugm-3
01-01-2011,24:00,13,R,ugm-3,29,R,ugm-3,48,R,ugm-3
02-01-2011,01:00,16,R,ugm-3,31,R,ugm-3,55,R,ugm-3
02-01-2011,02:00,5,R,ugm-3,23,R,ugm-3,31,R,ugm-3
02-01-2011,03:00,8,R,ugm-3,25,R,ugm-3,36,R,ugm-3
02-01-2011,04:00,3,R,ugm-3,17,R,ugm-3,21,R,ugm-3
02-01-2011,05:00,3,R,ugm-3,17,R,ugm-3,21,R,ugm-3
02-01-2011,06:00,1,R,ugm-3,19,R,ugm-3,21,R,ugm-3
02-01-2011,07:00,8,R,ugm-3,25,R,ugm-3,36,R,ugm-3
02-01-2011,08:00,24,R,ugm-3,31,R,ugm-3,67,R,ugm-3
02-01-2011,09:00,30,R,ugm-3,40,R,ugm-3,86,R,ugm-3
02-01-2011,10:00,53,R,ugm-3,53,R,ugm-3,134,R,ugm-3
02-01-2011,11:00,61,R,ugm-3,61,R,ugm-3,155,R,ugm-3
02-01-2011,12:00,70,R,ugm-3,65,R,ugm-3,172,R,ugm-3
02-01-2011,13:00,83,R,ugm-3,71,R,ugm-3,197,R,ugm-3
02-01-2011,14:00,64,R,ugm-3,63,R,ugm-3,160,R,ugm-3
02-01-2011,15:00,63,R,ugm-3,65,R,ugm-3,160,R,ugm-3
02-01-2011,16:00,81,R,ugm-3,78,R,ugm-3,202,R,ugm-3
02-01-2011,17:00,135,R,ugm-3,92,R,ugm-3,298,R,ugm-3
02-01-2011,18:00,81,R,ugm-3,92,R,ugm-3,216,R,ugm-3
02-01-2011,19:00,118,R,ugm-3,101,R,ugm-3,281,R,ugm-3
02-01-2011,20:00,69,R,ugm-3,86,R,ugm-3,191,R,ugm-3
02-01-2011,21:00,50,R,ugm-3,76,R,ugm-3,153,R,ugm-3
02-01-2011,22:00,46,R,ugm-3,71,R,ugm-3,141,R,ugm-3
02-01-2011,23:00,46,R,ugm-3,69,R,ugm-3,139,R,ugm-3
02-01-2011,24:00,33,R,ugm-3,55,R,ugm-3,105,R,ugm-3
03-01-2011,01:00,21,R,ugm-3,44,R,ugm-3,76,R,ugm-3
03-01-2011,02:00,16,R,ugm-3,46,R,ugm-3,71,R,ugm-3
03-01-2011,03:00,15,R,ugm-3,38,R,ugm-3,61,R,ugm-3
03-01-2011,04:00,11,R,ugm-3,34,R,ugm-3,52,R,ugm-3
03-01-2011,05:00,8,R,ugm-3,34,R,ugm-3,46,R,ugm-3
03-01-2011,06:00,21,R,ugm-3,40,R,ugm-3,73,R,ugm-3
03-01-2011,07:00,53,R,ugm-3,53,R,ugm-3,134,R,ugm-3
03-01-2011,08:00,173,R,ugm-3,76,R,ugm-3,340,R,ugm-3
03-01-2011,09:00,166,R,ugm-3,84,R,ugm-3,338,R,ugm-3
03-01-2011,10:00,199,R,ugm-3,97,R,ugm-3,401,R,ugm-3
03-01-2011,11:00,220,R,ugm-3,99,R,ugm-3,435,R,ugm-3
03-01-2011,12:00,263,R,ugm-3,120,R,ugm-3,521,R,ugm-3
03-01-2011,13:00,215,R,ugm-3,115,R,ugm-3,443,R,ugm-3
03-01-2011,14:00,200,R,ugm-3,115,R,ugm-3,420,R,ugm-3
03-01-2011,15:00,140,R,ugm-3,103,R,ugm-3,317,R,ugm-3
03-01-2011,16:00,210,R,ugm-3,130,R,ugm-3,451,R,ugm-3
03-01-2011,17:00,118,R,ugm-3,96,R,ugm-3,275,R,ugm-3
03-01-2011,18:00,229,R,ugm-3,118,R,ugm-3,468,R,ugm-3
03-01-2011,19:00,161,R,ugm-3,120,R,ugm-3,367,R,ugm-3
03-01-2011,20:00,151,R,ugm-3,105,R,ugm-3,336,R,ugm-3
03-01-2011,21:00,118,R,ugm-3,92,R,ugm-3,271,R,ugm-3
03-01-2011,22:00,129,R,ugm-3,96,R,ugm-3,292,R,ugm-3
03-01-2011,23:00,126,R,ugm-3,96,R,ugm-3,288,R,ugm-3
03-01-2011,24:00,104,R,ugm-3,88,R,ugm-3,246,R,ugm-3
04-01-2011,01:00,65,R,ugm-3,73,R,ugm-3,172,R,ugm-3
04-01-2011,02:00,43,R,ugm-3,55,R,ugm-3,120,R,ugm-3
04-01-2011,03:00,51,R,ugm-3,55,R,ugm-3,134,R,ugm-3
04-01-2011,04:00,10,R,ugm-3,42,R,ugm-3,57,R,ugm-3
04-01-2011,05:00,11,R,ugm-3,34,R,ugm-3,52,R,ugm-3
04-01-2011,06:00,40,R,ugm-3,44,R,ugm-3,105,R,ugm-3
04-01-2011,07:00,151,R,ugm-3,80,R,ugm-3,311,R,ugm-3
04-01-2011,08:00,226,R,ugm-3,111,R,ugm-3,456,R,ugm-3
04-01-2011,09:00,243,R,ugm-3,117,R,ugm-3,487,R,ugm-3
04-01-2011,10:00,206,R,ugm-3,124,R,ugm-3,439,R,ugm-3
04-01-2011,11:00,300,R,ugm-3,143,R,ugm-3,602,R,ugm-3
04-01-2011,12:00,178,R,ugm-3,109,R,ugm-3,380,R,ugm-3
04-01-2011,13:00,60,R,ugm-3,63,R,ugm-3,155,R,ugm-3
04-01-2011,14:00,66,R,ugm-3,63,R,ugm-3,164,R,ugm-3
04-01-2011,15:00,68,R,ugm-3,63,R,ugm-3,166,R,ugm-3
04-01-2011,16:00,91,R,ugm-3,74,R,ugm-3,214,R,ugm-3
04-01-2011,17:00,109,R,ugm-3,82,R,ugm-3,248,R,ugm-3
04-01-2011,18:00,128,R,ugm-3,88,R,ugm-3,283,R,ugm-3
04-01-2011,19:00,81,R,ugm-3,76,R,ugm-3,201,R,ugm-3
04-01-2011,20:00,48,R,ugm-3,61,R,ugm-3,134,R,ugm-3
04-01-2011,21:00,30,R,ugm-3,42,R,ugm-3,88,R,ugm-3
04-01-2011,22:00,19,R,ugm-3,38,R,ugm-3,67,R,ugm-3
04-01-2011,23:00,15,R,ugm-3,31,R,ugm-3,53,R,ugm-3
04-01-2011,24:00,10,R,ugm-3,23,R,ugm-3,38,R,ugm-3
05-01-2011,01:00,6,R,ugm-3,21,R,ugm-3,31,R,ugm-3
05-01-2011,02:00,4,R,ugm-3,15,R,ugm-3,21,R,ugm-3
05-01-2011,03:00,1,R,ugm-3,13,R,ugm-3,15,R,ugm-3
05-01-2011,04:00,1,R,ugm-3,8,R,ugm-3,10,R,ugm-3
05-01-2011,05:00,1,R,ugm-3,8,R,ugm-3,10,R,ugm-3
05-01-2011,06:00,3,R,ugm-3,13,R,ugm-3,17,R,ugm-3
05-01-2011,07:00,21,R,ugm-3,29,R,ugm-3,61,R,ugm-3
05-01-2011,08:00,29,R,ugm-3,38,R,ugm-3,82,R,ugm-3
05-01-2011,09:00,38,R,ugm-3,48,R,ugm-3,105,R,ugm-3
05-01-2011,10:00,41,R,ugm-3,53,R,ugm-3,117,R,ugm-3
05-01-2011,11:00,40,R,ugm-3,55,R,ugm-3,117,R,ugm-3
05-01-2011,12:00,65,R,ugm-3,71,R,ugm-3,170,R,ugm-3
05-01-2011,13:00,59,R,ugm-3,69,R,ugm-3,159,R,ugm-3
05-01-2011,14:00,49,R,ugm-3,61,R,ugm-3,136,R,ugm-3
05-01-2011,15:00,50,R,ugm-3,55,R,ugm-3,132,R,ugm-3
05-01-2011,16:00,,,,,,,,,
05-01-2011,17:00,109,R,ugm-3,71,R,ugm-3,237,R,ugm-3
05-01-2011,18:00,138,R,ugm-3,86,R,ugm-3,296,R,ugm-3
05-01-2011,19:00,108,R,ugm-3,80,R,ugm-3,244,R,ugm-3
05-01-2011,20:00,96,R,ugm-3,73,R,ugm-3,220,R,ugm-3
05-01-2011,21:00,128,R,ugm-3,80,R,ugm-3,275,R,ugm-3
05-01-2011,22:00,125,R,ugm-3,86,R,ugm-3,277,R,ugm-3
05-01-2011,23:00,129,R,ugm-3,90,R,ugm-3,287,R,ugm-3
05-01-2011,24:00,89,R,ugm-3,80,R,ugm-3,216,R,ugm-3
06-01-2011,01:00,24,R,ugm-3,55,R,ugm-3,92,R,ugm-3
06-01-2011,02:00,20,R,ugm-3,52,R,ugm-3,82,R,ugm-3
06-01-2011,03:00,14,R,ugm-3,48,R,ugm-3,69,R,ugm-3
06-01-2011,04:00,9,R,ugm-3,40,R,ugm-3,53,R,ugm-3
06-01-2011,05:00,15,R,ugm-3,46,R,ugm-3,69,R,ugm-3
06-01-2011,06:00,55,R,ugm-3,59,R,ugm-3,143,R,ugm-3
06-01-2011,07:00,105,R,ugm-3,74,R,ugm-3,235,R,ugm-3
06-01-2011,08:00,214,R,ugm-3,107,R,ugm-3,434,R,ugm-3
06-01-2011,09:00,288,R,ugm-3,132,R,ugm-3,571,R,ugm-3
06-01-2011,10:00,396,R,ugm-3,187,R,ugm-3,793,R,ugm-3
06-01-2011,11:00,334,R,ugm-3,162,R,ugm-3,672,R,ugm-3
06-01-2011,12:00,238,R,ugm-3,138,R,ugm-3,500,R,ugm-3
06-01-2011,13:00,183,R,ugm-3,111,R,ugm-3,390,R,ugm-3
06-01-2011,14:00,181,R,ugm-3,117,R,ugm-3,393,R,ugm-3
06-01-2011,15:00,176,R,ugm-3,115,R,ugm-3,384,R,ugm-3
06-01-2011,16:00,91,R,ugm-3,94,R,ugm-3,233,R,ugm-3
06-01-2011,17:00,91,R,ugm-3,96,R,ugm-3,235,R,ugm-3
06-01-2011,18:00,96,R,ugm-3,94,R,ugm-3,241,R,ugm-3
06-01-2011,19:00,91,R,ugm-3,94,R,ugm-3,233,R,ugm-3
06-01-2011,20:00,126,R,ugm-3,105,R,ugm-3,298,R,ugm-3
06-01-2011,21:00,120,R,ugm-3,101,R,ugm-3,285,R,ugm-3
06-01-2011,22:00,285,R,ugm-3,139,R,ugm-3,575,R,ugm-3
06-01-2011,23:00,259,R,ugm-3,138,R,ugm-3,533,R,ugm-3
06-01-2011,24:00,260,R,ugm-3,126,R,ugm-3,523,R,ugm-3
07-01-2011,01:00,254,R,ugm-3,115,R,ugm-3,502,R,ugm-3
07-01-2011,02:00,140,R,ugm-3,92,R,ugm-3,306,R,ugm-3
07-01-2011,03:00,101,R,ugm-3,84,R,ugm-3,239,R,ugm-3
07-01-2011,04:00,51,R,ugm-3,61,R,ugm-3,139,R,ugm-3
07-01-2011,05:00,45,R,ugm-3,59,R,ugm-3,128,R,ugm-3
07-01-2011,06:00,76,R,ugm-3,65,R,ugm-3,181,R,ugm-3
07-01-2011,07:00,198,R,ugm-3,92,R,ugm-3,393,R,ugm-3
07-01-2011,08:00,228,R,ugm-3,96,R,ugm-3,443,R,ugm-3
07-01-2011,09:00,259,R,ugm-3,103,R,ugm-3,499,R,ugm-3
07-01-2011,10:00,265,R,ugm-3,97,R,ugm-3,502,R,ugm-3
07-01-2011,11:00,273,R,ugm-3,94,R,ugm-3,510,R,ugm-3
07-01-2011,12:00,224,R,ugm-3,76,R,ugm-3,418,R,ugm-3
07-01-2011,13:00,195,R,ugm-3,67,R,ugm-3,365,R,ugm-3
07-01-2011,14:00,151,R,ugm-3,63,R,ugm-3,294,R,ugm-3
07-01-2011,15:00,146,R,ugm-3,63,R,ugm-3,287,R,ugm-3
07-01-2011,16:00,135,R,ugm-3,61,R,ugm-3,267,R,ugm-3
07-01-2011,17:00,100,R,ugm-3,57,R,ugm-3,210,R,ugm-3
07-01-2011,18:00,78,R,ugm-3,53,R,ugm-3,172,R,ugm-3
07-01-2011,19:00,55,R,ugm-3,44,R,ugm-3,128,R,ugm-3
07-01-2011,20:00,34,R,ugm-3,44,R,ugm-3,96,R,ugm-3
07-01-2011,21:00,30,R,ugm-3,40,R,ugm-3,86,R,ugm-3
07-01-2011,22:00,23,R,ugm-3,36,R,ugm-3,71,R,ugm-3
07-01-2011,23:00,16,R,ugm-3,36,R,ugm-3,61,R,ugm-3
07-01-2011,24:00,14,R,ugm-3,32,R,ugm-3,53,R,ugm-3
08-01-2011,01:00,10,R,ugm-3,29,R,ugm-3,44,R,ugm-3
08-01-2011,02:00,9,R,ugm-3,25,R,ugm-3,38,R,ugm-3
08-01-2011,03:00,25,R,ugm-3,31,R,ugm-3,69,R,ugm-3
08-01-2011,04:00,6,R,ugm-3,21,R,ugm-3,31,R,ugm-3
08-01-2011,05:00,5,R,ugm-3,17,R,ugm-3,25,R,ugm-3
08-01-2011,06:00,8,R,ugm-3,25,R,ugm-3,36,R,ugm-3
08-01-2011,07:00,9,R,ugm-3,34,R,ugm-3,48,R,ugm-3
08-01-2011,08:00,11,R,ugm-3,36,R,ugm-3,53,R,ugm-3
08-01-2011,09:00,14,R,ugm-3,36,R,ugm-3,57,R,ugm-3
08-01-2011,10:00,13,R,ugm-3,38,R,ugm-3,57,R,ugm-3
08-01-2011,11:00,16,R,ugm-3,40,R,ugm-3,65,R,ugm-3
08-01-2011,12:00,19,R,ugm-3,38,R,ugm-3,67,R,ugm-3
08-01-2011,13:00,18,R,ugm-3,32,R,ugm-3,59,R,ugm-3
08-01-2011,14:00,21,R,ugm-3,32,R,ugm-3,65,R,ugm-3
08-01-2011,15:00,19,R,ugm-3,42,R,ugm-3,71,R,ugm-3
08-01-2011,16:00,46,R,ugm-3,65,R,ugm-3,136,R,ugm-3
08-01-2011,17:00,55,R,ugm-3,65,R,ugm-3,149,R,ugm-3
08-01-2011,18:00,64,R,ugm-3,63,R,ugm-3,160,R,ugm-3
08-01-2011,19:00,41,R,ugm-3,52,R,ugm-3,115,R,ugm-3
08-01-2011,20:00,36,R,ugm-3,46,R,ugm-3,101,R,ugm-3
08-01-2011,21:00,14,R,ugm-3,29,R,ugm-3,50,R,ugm-3
08-01-2011,22:00,15,R,ugm-3,27,R,ugm-3,50,R,ugm-3
08-01-2011,23:00,10,R,ugm-3,19,R,ugm-3,34,R,ugm-3
08-01-2011,24:00,10,R,ugm-3,23,R,ugm-3,38,R,ugm-3
09-01-2011,01:00,8,R,ugm-3,31,R,ugm-3,42,R,ugm-3
09-01-2011,02:00,11,R,ugm-3,36,R,ugm-3,53,R,ugm-3
09-01-2011,03:00,18,R,ugm-3,40,R,ugm-3,67,R,ugm-3
09-01-2011,04:00,11,R,ugm-3,34,R,ugm-3,52,R,ugm-3
09-01-2011,05:00,5,R,ugm-3,21,R,ugm-3,29,R,ugm-3
09-01-2011,06:00,1,R,ugm-3,15,R,ugm-3,17,R,ugm-3
09-01-2011,07:00,1,R,ugm-3,17,R,ugm-3,19,R,ugm-3
09-01-2011,08:00,13,R,ugm-3,19,R,ugm-3,38,R,ugm-3
09-01-2011,09:00,11,R,ugm-3,25,R,ugm-3,42,R,ugm-3
09-01-2011,10:00,19,R,ugm-3,31,R,ugm-3,59,R,ugm-3
09-01-2011,11:00,24,R,ugm-3,36,R,ugm-3,73,R,ugm-3
09-01-2011,12:00,35,R,ugm-3,38,R,ugm-3,92,R,ugm-3
09-01-2011,13:00,30,R,ugm-3,36,R,ugm-3,82,R,ugm-3
09-01-2011,14:00,28,R,ugm-3,38,R,ugm-3,80,R,ugm-3
09-01-2011,15:00,26,R,ugm-3,46,R,ugm-3,86,R,ugm-3
09-01-2011,16:00,54,R,ugm-3,57,R,ugm-3,139,R,ugm-3
09-01-2011,17:00,73,R,ugm-3,73,R,ugm-3,183,R,ugm-3
09-01-2011,18:00,145,R,ugm-3,99,R,ugm-3,321,R,ugm-3
09-01-2011,19:00,96,R,ugm-3,80,R,ugm-3,227,R,ugm-3
09-01-2011,20:00,149,R,ugm-3,94,R,ugm-3,321,R,ugm-3
09-01-2011,21:00,75,R,ugm-3,80,R,ugm-3,195,R,ugm-3
09-01-2011,22:00,116,R,ugm-3,88,R,ugm-3,265,R,ugm-3
09-01-2011,23:00,56,R,ugm-3,69,R,ugm-3,155,R,ugm-3
09-01-2011,24:00,101,R,ugm-3,69,R,ugm-3,223,R,ugm-3
10-01-2011,01:00,40,R,ugm-3,59,R,ugm-3,120,R,ugm-3
10-01-2011,02:00,18,R,ugm-3,50,R,ugm-3,76,R,ugm-3
10-01-2011,03:00,8,R,ugm-3,34,R,ugm-3,46,R,ugm-3
10-01-2011,04:00,9,R,ugm-3,31,R,ugm-3,44,R,ugm-3
10-01-2011,05:00,8,R,ugm-3,27,R,ugm-3,38,R,ugm-3
10-01-2011,06:00,21,R,ugm-3,46,R,ugm-3,78,R,ugm-3
10-01-2011,07:00,104,R,ugm-3,76,R,ugm-3,235,R,ugm-3
10-01-2011,08:00,76,R,ugm-3,80,R,ugm-3,197,R,ugm-3
10-01-2011,09:00,170,R,ugm-3,103,R,ugm-3,363,R,ugm-3
10-01-2011,10:00,124,R,ugm-3,107,R,ugm-3,296,R,ugm-3
10-01-2011,11:00,105,R,ugm-3,92,R,ugm-3,252,R,ugm-3
10-01-2011,12:00,64,R,ugm-3,82,R,ugm-3,180,R,ugm-3
10-01-2011,13:00,51,R,ugm-3,71,R,ugm-3,149,R,ugm-3
10-01-2011,14:00,39,R,ugm-3,63,R,ugm-3,122,R,ugm-3
10-01-2011,15:00,36,R,ugm-3,57,R,ugm-3,113,R,ugm-3
10-01-2011,16:00,41,R,ugm-3,73,R,ugm-3,136,R,ugm-3
10-01-2011,17:00,45,R,ugm-3,59,R,ugm-3,128,R,ugm-3
10-01-2011,18:00,35,R,ugm-3,57,R,ugm-3,111,R,ugm-3
10-01-2011,19:00,40,R,ugm-3,55,R,ugm-3,117,R,ugm-3
10-01-2011,20:00,31,R,ugm-3,48,R,ugm-3,96,R,ugm-3
10-01-2011,21:00,24,R,ugm-3,38,R,ugm-3,74,R,ugm-3
10-01-2011,22:00,24,R,ugm-3,34,R,ugm-3,71,R,ugm-3
10-01-2011,23:00,18,R,ugm-3,34,R,ugm-3,61,R,ugm-3
10-01-2011,24:00,11,R,ugm-3,29,R,ugm-3,46,R,ugm-3
11-01-2011,01:00,3,R,ugm-3,17,R,ugm-3,21,R,ugm-3
11-01-2011,02:00,5,R,ugm-3,19,R,ugm-3,27,R,ugm-3
11-01-2011,03:00,10,R,ugm-3,17,R,ugm-3,32,R,ugm-3
11-01-2011,04:00,11,R,ugm-3,19,R,ugm-3,36,R,ugm-3
11-01-2011,05:00,10,R,ugm-3,19,R,ugm-3,34,R,ugm-3
11-01-2011,06:00,28,R,ugm-3,40,R,ugm-3,82,R,ugm-3
11-01-2011,07:00,89,R,ugm-3,65,R,ugm-3,201,R,ugm-3
11-01-2011,08:00,45,R,ugm-3,55,R,ugm-3,124,R,ugm-3
11-01-2011,09:00,28,R,ugm-3,52,R,ugm-3,94,R,ugm-3
11-01-2011,10:00,13,R,ugm-3,29,R,ugm-3,48,R,ugm-3
11-01-2011,11:00,23,R,ugm-3,32,R,ugm-3,67,R,ugm-3
11-01-2011,12:00,15,R,ugm-3,38,R,ugm-3,61,R,ugm-3
11-01-2011,13:00,14,R,ugm-3,34,R,ugm-3,55,R,ugm-3
11-01-2011,14:00,20,R,ugm-3,34,R,ugm-3,65,R,ugm-3
11-01-2011,15:00,13,R,ugm-3,34,R,ugm-3,53,R,ugm-3
11-01-2011,16:00,20,R,ugm-3,42,R,ugm-3,73,R,ugm-3
11-01-2011,17:00,46,R,ugm-3,57,R,ugm-3,128,R,ugm-3
11-01-2011,18:00,55,R,ugm-3,69,R,ugm-3,153,R,ugm-3
11-01-2011,19:00,108,R,ugm-3,94,R,ugm-3,258,R,ugm-3
11-01-2011,20:00,209,R,ugm-3,126,R,ugm-3,445,R,ugm-3
11-01-2011,21:00,131,R,ugm-3,101,R,ugm-3,302,R,ugm-3
11-01-2011,22:00,138,R,ugm-3,99,R,ugm-3,309,R,ugm-3
11-01-2011,23:00,135,R,ugm-3,96,R,ugm-3,302,R,ugm-3
11-01-2011,24:00,135,R,ugm-3,92,R,ugm-3,298,R,ugm-3
12-01-2011,01:00,34,R,ugm-3,57,R,ugm-3,109,R,ugm-3
12-01-2011,02:00,29,R,ugm-3,46,R,ugm-3,90,R,ugm-3
12-01-2011,03:00,5,R,ugm-3,25,R,ugm-3,32,R,ugm-3
12-01-2011,04:00,3,R,ugm-3,25,R,ugm-3,29,R,ugm-3
12-01-2011,05:00,1,R,ugm-3,21,R,ugm-3,23,R,ugm-3
12-01-2011,06:00,3,R,ugm-3,17,R,ugm-3,21,R,ugm-3
12-01-2011,07:00,24,R,ugm-3,40,R,ugm-3,76,R,ugm-3
12-01-2011,08:00,71,R,ugm-3,63,R,ugm-3,172,R,ugm-3
12-01-2011,09:00,45,R,ugm-3,52,R,ugm-3,120,R,ugm-3
12-01-2011,10:00,20,R,ugm-3,34,R,ugm-3,65,R,ugm-3
12-01-2011,11:00,35,R,ugm-3,40,R,ugm-3,94,R,ugm-3
12-01-2011,12:00,39,R,ugm-3,38,R,ugm-3,97,R,ugm-3
12-01-2011,13:00,43,R,ugm-3,40,R,ugm-3,105,R,ugm-3
12-01-2011,14:00,46,R,ugm-3,44,R,ugm-3,115,R,ugm-3
12-01-2011,15:00,49,R,ugm-3,42,R,ugm-3,117,R,ugm-3
12-01-2011,16:00,58,R,ugm-3,40,R,ugm-3,128,R,ugm-3
12-01-2011,17:00,53,R,ugm-3,40,R,ugm-3,120,R,ugm-3
12-01-2011,18:00,51,R,ugm-3,36,R,ugm-3,115,R,ugm-3
12-01-2011,19:00,38,R,ugm-3,36,R,ugm-3,94,R,ugm-3
12-01-2011,20:00,30,R,ugm-3,32,R,ugm-3,78,R,ugm-3
12-01-2011,21:00,20,R,ugm-3,31,R,ugm-3,61,R,ugm-3
12-01-2011,22:00,19,R,ugm-3,29,R,ugm-3,57,R,ugm-3
12-01-2011,23:00,16,R,ugm-3,25,R,ugm-3,50,R,ugm-3
12-01-2011,24:00,15,R,ugm-3,21,R,ugm-3,44,R,ugm-3
13-01-2011,01:00,10,R,ugm-3,17,R,ugm-3,32,R,ugm-3
13-01-2011,02:00,6,R,ugm-3,15,R,ugm-3,25,R,ugm-3
13-01-2011,03:00,6,R,ugm-3,13,R,ugm-3,23,R,ugm-3
13-01-2011,04:00,6,R,ugm-3,13,R,ugm-3,23,R,ugm-3
13-01-2011,05:00,6,R,ugm-3,11,R,ugm-3,21,R,ugm-3
13-01-2011,06:00,5,R,ugm-3,15,R,ugm-3,23,R,ugm-3
13-01-2011,07:00,10,R,ugm-3,17,R,ugm-3,32,R,ugm-3
13-01-2011,08:00,15,R,ugm-3,21,R,ugm-3,44,R,ugm-3
13-01-2011,09:00,25,R,ugm-3,25,R,ugm-3,63,R,ugm-3
13-01-2011,10:00,24,R,ugm-3,25,R,ugm-3,61,R,ugm-3
13-01-2011,11:00,29,R,ugm-3,32,R,ugm-3,76,R,ugm-3
13-01-2011,12:00,33,R,ugm-3,32,R,ugm-3,82,R,ugm-3
13-01-2011,13:00,36,R,ugm-3,29,R,ugm-3,84,R,ugm-3
13-01-2011,14:00,43,R,ugm-3,29,R,ugm-3,94,R,ugm-3
13-01-2011,15:00,50,R,ugm-3,31,R,ugm-3,107,R,ugm-3
13-01-2011,16:00,56,R,ugm-3,34,R,ugm-3,120,R,ugm-3
13-01-2011,17:00,53,R,ugm-3,34,R,ugm-3,115,R,ugm-3
13-01-2011,18:00,40,R,ugm-3,40,R,ugm-3,101,R,ugm-3
13-01-2011,19:00,41,R,ugm-3,38,R,ugm-3,101,R,ugm-3
13-01-2011,20:00,34,R,ugm-3,36,R,ugm-3,88,R,ugm-3
13-01-2011,21:00,23,R,ugm-3,34,R,ugm-3,69,R,ugm-3
13-01-2011,22:00,20,R,ugm-3,31,R,ugm-3,61,R,ugm-3
13-01-2011,23:00,21,R,ugm-3,29,R,ugm-3,61,R,ugm-3
13-01-2011,24:00,19,R,ugm-3,25,R,ugm-3,53,R,ugm-3
14-01-2011,01:00,24,R,ugm-3,23,R,ugm-3,59,R,ugm-3
14-01-2011,02:00,14,R,ugm-3,25,R,ugm-3,46,R,ugm-3
14-01-2011,03:00,11,R,ugm-3,19,R,ugm-3,36,R,ugm-3
14-01-2011,04:00,9,R,ugm-3,17,R,ugm-3,31,R,ugm-3
14-01-2011,05:00,5,R,ugm-3,15,R,ugm-3,23,R,ugm-3
14-01-2011,06:00,5,R,ugm-3,13,R,ugm-3,21,R,ugm-3
14-01-2011,07:00,13,R,ugm-3,19,R,ugm-3,38,R,ugm-3
14-01-2011,08:00,21,R,ugm-3,25,R,ugm-3,57,R,ugm-3
14-01-2011,09:00,33,R,ugm-3,31,R,ugm-3,80,R,ugm-3
14-01-2011,10:00,26,R,ugm-3,31,R,ugm-3,71,R,ugm-3
14-01-2011,11:00,25,R,ugm-3,32,R,ugm-3,71,R,ugm-3
14-01-2011,12:00,29,R,ugm-3,42,R,ugm-3,86,R,ugm-3
14-01-2011,13:00,30,R,ugm-3,42,R,ugm-3,88,R,ugm-3
14-01-2011,14:00,30,R,ugm-3,42,R,ugm-3,88,R,ugm-3
14-01-2011,15:00,30,R,ugm-3,44,R,ugm-3,90,R,ugm-3
14-01-2011,16:00,31,R,ugm-3,50,R,ugm-3,97,R,ugm-3
14-01-2011,17:00,43,R,ugm-3,63,R,ugm-3,128,R,ugm-3
14-01-2011,18:00,34,R,ugm-3,55,R,ugm-3,107,R,ugm-3
14-01-2011,19:00,20,R,ugm-3,46,R,ugm-3,76,R,ugm-3
14-01-2011,20:00,26,R,ugm-3,40,R,ugm-3,80,R,ugm-3
14-01-2011,21:00,13,R,ugm-3,25,R,ugm-3,44,R,ugm-3
14-01-2011,22:00,16,R,ugm-3,23,R,ugm-3,48,R,ugm-3
14-01-2011,23:00,33,R,ugm-3,23,R,ugm-3,73,R,ugm-3
14-01-2011,24:00,35,R,ugm-3,32,R,ugm-3,86,R,ugm-3
15-01-2011,01:00,11,R,ugm-3,32,R,ugm-3,50,R,ugm-3
15-01-2011,02:00,6,R,ugm-3,40,R,ugm-3,50,R,ugm-3
15-01-2011,03:00,11,R,ugm-3,38,R,ugm-3,55,R,ugm-3
15-01-2011,04:00,5,R,ugm-3,25,R,ugm-3,32,R,ugm-3
15-01-2011,05:00,0,R,ugm-3,15,R,ugm-3,15,R,ugm-3
15-01-2011,06:00,0,R,ugm-3,10,R,ugm-3,10,R,ugm-3
15-01-2011,07:00,4,R,ugm-3,13,R,ugm-3,19,R,ugm-3
15-01-2011,08:00,6,R,ugm-3,17,R,ugm-3,27,R,ugm-3
15-01-2011,09:00,6,R,ugm-3,19,R,ugm-3,29,R,ugm-3
15-01-2011,10:00,18,R,ugm-3,27,R,ugm-3,53,R,ugm-3
15-01-2011,11:00,11,R,ugm-3,27,R,ugm-3,44,R,ugm-3
15-01-2011,12:00,8,R,ugm-3,29,R,ugm-3,40,R,ugm-3
15-01-2011,13:00,9,R,ugm-3,29,R,ugm-3,42,R,ugm-3
15-01-2011,14:00,14,R,ugm-3,29,R,ugm-3,50,R,ugm-3
15-01-2011,15:00,15,R,ugm-3,29,R,ugm-3,52,R,ugm-3
15-01-2011,16:00,18,R,ugm-3,32,R,ugm-3,59,R,ugm-3
15-01-2011,17:00,21,R,ugm-3,34,R,ugm-3,67,R,ugm-3
15-01-2011,18:00,13,R,ugm-3,31,R,ugm-3,50,R,ugm-3
15-01-2011,19:00,9,R,ugm-3,27,R,ugm-3,40,R,ugm-3
15-01-2011,20:00,6,R,ugm-3,23,R,ugm-3,32,R,ugm-3
15-01-2011,21:00,5,R,ugm-3,21,R,ugm-3,29,R,ugm-3
15-01-2011,22:00,11,R,ugm-3,19,R,ugm-3,36,R,ugm-3
15-01-2011,23:00,5,R,ugm-3,21,R,ugm-3,29,R,ugm-3
15-01-2011,24:00,5,R,ugm-3,15,R,ugm-3,23,R,ugm-3
16-01-2011,01:00,4,R,ugm-3,11,R,ugm-3,17,R,ugm-3
16-01-2011,02:00,4,R,ugm-3,15,R,ugm-3,21,R,ugm-3
16-01-2011,03:00,4,R,ugm-3,17,R,ugm-3,23,R,ugm-3
16-01-2011,04:00,3,R,ugm-3,13,R,ugm-3,17,R,ugm-3
16-01-2011,05:00,0,R,ugm-3,10,R,ugm-3,10,R,ugm-3
16-01-2011,06:00,0,R,ugm-3,6,R,ugm-3,6,R,ugm-3
16-01-2011,07:00,0,R,ugm-3,8,R,ugm-3,8,R,ugm-3
16-01-2011,08:00,0,R,ugm-3,10,R,ugm-3,10,R,ugm-3
16-01-2011,09:00,5,R,ugm-3,15,R,ugm-3,23,R,ugm-3
16-01-2011,10:00,4,R,ugm-3,17,R,ugm-3,23,R,ugm-3
16-01-2011,11:00,9,R,ugm-3,23,R,ugm-3,36,R,ugm-3
16-01-2011,12:00,9,R,ugm-3,27,R,ugm-3,40,R,ugm-3
16-01-2011,13:00,9,R,ugm-3,25,R,ugm-3,38,R,ugm-3
16-01-2011,14:00,14,R,ugm-3,27,R,ugm-3,48,R,ugm-3
16-01-2011,15:00,10,R,ugm-3,23,R,ugm-3,38,R,ugm-3
16-01-2011,16:00,10,R,ugm-3,21,R,ugm-3,36,R,ugm-3
16-01-2011,17:00,13,R,ugm-3,23,R,ugm-3,42,R,ugm-3
16-01-2011,18:00,15,R,ugm-3,25,R,ugm-3,48,R,ugm-3
16-01-2011,19:00,16,R,ugm-3,32,R,ugm-3,57,R,ugm-3
16-01-2011,20:00,29,R,ugm-3,44,R,ugm-3,88,R,ugm-3
16-01-2011,21:00,25,R,ugm-3,46,R,ugm-3,84,R,ugm-3
16-01-2011,22:00,16,R,ugm-3,38,R,ugm-3,63,R,ugm-3
16-01-2011,23:00,50,R,ugm-3,61,R,ugm-3,138,R,ugm-3
16-01-2011,24:00,36,R,ugm-3,53,R,ugm-3,109,R,ugm-3
17-01-2011,01:00,23,R,ugm-3,40,R,ugm-3,74,R,ugm-3
17-01-2011,02:00,3,R,ugm-3,23,R,ugm-3,27,R,ugm-3
17-01-2011,03:00,13,R,ugm-3,31,R,ugm-3,50,R,ugm-3
17-01-2011,04:00,9,R,ugm-3,23,R,ugm-3,36,R,ugm-3
17-01-2011,05:00,10,R,ugm-3,21,R,ugm-3,36,R,ugm-3
17-01-2011,06:00,35,R,ugm-3,40,R,ugm-3,94,R,ugm-3
17-01-2011,07:00,101,R,ugm-3,57,R,ugm-3,212,R,ugm-3
17-01-2011,08:00,113,R,ugm-3,57,R,ugm-3,229,R,ugm-3
17-01-2011,09:00,80,R,ugm-3,52,R,ugm-3,174,R,ugm-3
17-01-2011,10:00,53,R,ugm-3,55,R,ugm-3,136,R,ugm-3
17-01-2011,11:00,48,R,ugm-3,55,R,ugm-3,128,R,ugm-3
17-01-2011,12:00,40,R,ugm-3,50,R,ugm-3,111,R,ugm-3
17-01-2011,13:00,43,R,ugm-3,52,R,ugm-3,117,R,ugm-3
17-01-2011,14:00,50,R,ugm-3,59,R,ugm-3,136,R,ugm-3
17-01-2011,15:00,55,R,ugm-3,57,R,ugm-3,141,R,ugm-3
17-01-2011,16:00,65,R,ugm-3,57,R,ugm-3,157,R,ugm-3
17-01-2011,17:00,95,R,ugm-3,59,R,ugm-3,204,R,ugm-3
17-01-2011,18:00,244,R,ugm-3,94,R,ugm-3,466,R,ugm-3
17-01-2011,19:00,251,R,ugm-3,99,R,ugm-3,483,R,ugm-3
17-01-2011,20:00,226,R,ugm-3,94,R,ugm-3,439,R,ugm-3
17-01-2011,21:00,149,R,ugm-3,76,R,ugm-3,304,R,ugm-3
17-01-2011,22:00,104,R,ugm-3,63,R,ugm-3,222,R,ugm-3
17-01-2011,23:00,53,R,ugm-3,40,R,ugm-3,120,R,ugm-3
17-01-2011,24:00,48,R,ugm-3,36,R,ugm-3,109,R,ugm-3
18-01-2011,01:00,38,R,ugm-3,38,R,ugm-3,96,R,ugm-3
18-01-2011,02:00,16,R,ugm-3,46,R,ugm-3,71,R,ugm-3
18-01-2011,03:00,10,R,ugm-3,34,R,ugm-3,50,R,ugm-3
18-01-2011,04:00,6,R,ugm-3,31,R,ugm-3,40,R,ugm-3
18-01-2011,05:00,5,R,ugm-3,32,R,ugm-3,40,R,ugm-3
18-01-2011,06:00,11,R,ugm-3,40,R,ugm-3,57,R,ugm-3
18-01-2011,07:00,18,R,ugm-3,42,R,ugm-3,69,R,ugm-3
18-01-2011,08:00,30,R,ugm-3,48,R,ugm-3,94,R,ugm-3
18-01-2011,09:00,40,R,ugm-3,52,R,ugm-3,113,R,ugm-3
18-01-2011,10:00,45,R,ugm-3,52,R,ugm-3,120,R,ugm-3
18-01-2011,11:00,36,R,ugm-3,52,R,ugm-3,107,R,ugm-3
18-01-2011,12:00,35,R,ugm-3,46,R,ugm-3,99,R,ugm-3
18-01-2011,13:00,48,R,ugm-3,40,R,ugm-3,113,R,ugm-3
18-01-2011,14:00,35,R,ugm-3,42,R,ugm-3,96,R,ugm-3
18-01-2011,15:00,30,R,ugm-3,46,R,ugm-3,92,R,ugm-3
18-01-2011,16:00,30,R,ugm-3,55,R,ugm-3,101,R,ugm-3
18-01-2011,17:00,56,R,ugm-3,76,R,ugm-3,162,R,ugm-3
18-01-2011,18:00,76,R,ugm-3,78,R,ugm-3,195,R,ugm-3
18-01-2011,19:00,85,R,ugm-3,74,R,ugm-3,204,R,ugm-3
18-01-2011,20:00,64,R,ugm-3,55,R,ugm-3,153,R,ugm-3
18-01-2011,21:00,41,R,ugm-3,52,R,ugm-3,115,R,ugm-3
18-01-2011,22:00,34,R,ugm-3,63,R,ugm-3,115,R,ugm-3
18-01-2011,23:00,40,R,ugm-3,73,R,ugm-3,134,R,ugm-3
18-01-2011,24:00,76,R,ugm-3,88,R,ugm-3,204,R,ugm-3
19-01-2011,01:00,36,R,ugm-3,71,R,ugm-3,126,R,ugm-3
19-01-2011,02:00,16,R,ugm-3,53,R,ugm-3,78,R,ugm-3
19-01-2011,03:00,13,R,ugm-3,42,R,ugm-3,61,R,ugm-3
19-01-2011,04:00,8,R,ugm-3,36,R,ugm-3,48,R,ugm-3
19-01-2011,05:00,3,R,ugm-3,32,R,ugm-3,36,R,ugm-3
19-01-2011,06:00,13,R,ugm-3,32,R,ugm-3,52,R,ugm-3
19-01-2011,07:00,80,R,ugm-3,63,R,ugm-3,185,R,ugm-3
19-01-2011,08:00,53,R,ugm-3,69,R,ugm-3,149,R,ugm-3
19-01-2011,09:00,68,R,ugm-3,74,R,ugm-3,178,R,ugm-3
19-01-2011,10:00,101,R,ugm-3,84,R,ugm-3,239,R,ugm-3
19-01-2011,11:00,78,R,ugm-3,76,R,ugm-3,195,R,ugm-3
19-01-2011,12:00,84,R,ugm-3,76,R,ugm-3,204,R,ugm-3
19-01-2011,13:00,73,R,ugm-3,69,R,ugm-3,180,R,ugm-3
19-01-2011,14:00,106,R,ugm-3,90,R,ugm-3,252,R,ugm-3
19-01-2011,15:00,70,R,ugm-3,76,R,ugm-3,183,R,ugm-3
19-01-2011,16:00,55,R,ugm-3,78,R,ugm-3,162,R,ugm-3
19-01-2011,17:00,96,R,ugm-3,94,R,ugm-3,241,R,ugm-3
19-01-2011,18:00,163,R,ugm-3,118,R,ugm-3,367,R,ugm-3
19-01-2011,19:00,139,R,ugm-3,113,R,ugm-3,325,R,ugm-3
19-01-2011,20:00,84,R,ugm-3,94,R,ugm-3,222,R,ugm-3
19-01-2011,21:00,88,R,ugm-3,88,R,ugm-3,222,R,ugm-3
19-01-2011,22:00,79,R,ugm-3,86,R,ugm-3,206,R,ugm-3
19-01-2011,23:00,99,R,ugm-3,90,R,ugm-3,241,R,ugm-3
19-01-2011,24:00,101,R,ugm-3,90,R,ugm-3,244,R,ugm-3
20-01-2011,01:00,28,R,ugm-3,67,R,ugm-3,109,R,ugm-3
20-01-2011,02:00,39,R,ugm-3,67,R,ugm-3,126,R,ugm-3
20-01-2011,03:00,28,R,ugm-3,61,R,ugm-3,103,R,ugm-3
20-01-2011,04:00,28,R,ugm-3,59,R,ugm-3,101,R,ugm-3
20-01-2011,05:00,33,R,ugm-3,57,R,ugm-3,107,R,ugm-3
20-01-2011,06:00,34,R,ugm-3,59,R,ugm-3,111,R,ugm-3
20-01-2011,07:00,109,R,ugm-3,82,R,ugm-3,248,R,ugm-3
20-01-2011,08:00,140,R,ugm-3,97,R,ugm-3,311,R,ugm-3
20-01-2011,09:00,149,R,ugm-3,101,R,ugm-3,329,R,ugm-3
20-01-2011,10:00,165,R,ugm-3,109,R,ugm-3,361,R,ugm-3
20-01-2011,11:00,169,R,ugm-3,107,R,ugm-3,365,R,ugm-3
20-01-2011,12:00,174,R,ugm-3,113,R,ugm-3,378,R,ugm-3
20-01-2011,13:00,155,R,ugm-3,111,R,ugm-3,348,R,ugm-3